This is the latest recevied weather packets stored in our database for station/object VA7NIC-10. If no packets are shown the sender has not sent any weather packets the latest 10 day(s).
| Time | Temp. | Humidity | Pressure | Rain* | Wind** | Luminosity | Snow |
|---|---|---|---|---|---|---|---|
| 1778190721 | 20° C | 51% | 1016.1 hPa | 0 mm | - | - | - |
| 1778189821 | 19.44° C | 51% | 1016.3 hPa | 0 mm | - | - | - |
| 1778188921 | 20° C | 49% | 1016.4 hPa | 0 mm | - | - | - |
| 1778188022 | 20.56° C | 50% | 1016.5 hPa | 0 mm | - | - | - |
| 1778187122 | 20° C | 48% | 1016.7 hPa | 0 mm | - | - | - |
| 1778186222 | 20.56° C | 49% | 1016.8 hPa | 0 mm | - | - | - |
| 1778185322 | 21.11° C | 47% | 1017 hPa | 0 mm | - | - | - |
| 1778184422 | 20.56° C | 49% | 1017.2 hPa | 0 mm | - | - | - |
| 1778183522 | 20° C | 53% | 1017.4 hPa | 0 mm | - | - | - |
| 1778182622 | 19.44° C | 55% | 1017.6 hPa | 0 mm | - | - | - |
| 1778181722 | 18.89° C | 55% | 1017.8 hPa | 0 mm | - | - | - |
| 1778180822 | 18.89° C | 56% | 1017.9 hPa | 0 mm | - | - | - |
| 1778179922 | 18.33° C | 56% | 1018.1 hPa | 0 mm | - | - | - |
| 1778179022 | 17.78° C | 58% | 1018.3 hPa | 0 mm | - | - | - |
| 1778178121 | 17.78° C | 62% | 1018.4 hPa | 0 mm | - | - | - |
| 1778177221 | 16.67° C | 64% | 1018.6 hPa | 0 mm | - | - | - |
| 1778176321 | 16.67° C | 65% | 1018.8 hPa | 0 mm | - | - | - |
| 1778175421 | 16.11° C | 67% | 1019 hPa | 0 mm | - | - | - |
| 1778174521 | 15.56° C | 69% | 1019.1 hPa | 0 mm | - | - | - |
| 1778173622 | 15° C | 69% | 1019.2 hPa | 0 mm | - | - | - |
| 1778172722 | 14.44° C | 72% | 1019.2 hPa | 0 mm | - | - | - |
| 1778171822 | 13.89° C | 77% | 1019.4 hPa | 0 mm | - | - | - |
| 1778170922 | 13.33° C | 79% | 1019.4 hPa | 0 mm | - | - | - |
| 1778170022 | 12.78° C | 81% | 1019.4 hPa | 0 mm | - | - | - |
| 1778169122 | 12.22° C | 84% | 1019.6 hPa | 0 mm | - | - | - |
* Rain latest hour (hover to see other rain measurements)
** Current wind speed in m/s (hover to see current wind gust speed)